Location: Alumbaugh
(37.5976°N, 83.9299°W)
Time: 21:18:20
(UTC+00:00)

STRAND 1 - Visible Passes

Search period start: 31 March 2023 00:00
Search period end: 10 April 2023 00:00
Orbit: 766 x 780 km, 98.4° (Epoch: 31 March)

Date Brightness Start Highest point End Pass type
(mag) Time Alt. Az. Time Alt. Az. Time Alt. Az.
31 Mar ? 00:48:38 10° N 00:53:36 54° WNW 00:58:31 10° SSW visible
31 Mar ? 10:24:55 10° ESE 10:28:28 19° ENE 10:32:01 10° NNE visible
01 Apr ? 00:14:09 10° NNE 00:19:14 69° ESE 00:24:17 10° S visible
01 Apr ? 01:55:21 10° NNW 01:57:46 13° WNW 02:00:10 10° W visible
02 Apr ? 01:19:28 10° N 01:23:45 28° WNW 01:28:01 10° SW visible
03 Apr ? 00:44:32 10° N 00:49:32 59° WNW 00:54:31 10° SSW visible
03 Apr ? 10:21:07 10° ESE 10:24:26 18° ENE 10:27:46 10° NNE visible
04 Apr ? 01:51:01 10° NNW 01:53:45 15° WNW 01:56:29 10° W visible
05 Apr ? 01:15:18 10° N 01:19:42 30° WNW 01:24:05 10° SW visible
06 Apr ? 00:40:25 10° N 00:45:28 65° WNW 00:50:29 10° SSW visible
06 Apr ? 10:17:21 10° E 10:20:25 16° ENE 10:23:29 10° NNE visible
07 Apr ? 01:46:41 10° NNW 01:49:43 16° WNW 01:52:44 10° W visible
08 Apr ? 01:11:07 10° N 01:15:38 33° WNW 01:20:08 10° SW visible
09 Apr ? 00:36:18 10° N 00:41:22 71° WNW 00:46:26 10° SSW visible
09 Apr ? 10:13:34 10° E 10:16:22 15° ENE 10:19:09 10° NNE visible
